Moose, Wyoming, United States (83012)
Lat: 43.66N, Lon: 110.72W
Wx Zone: WYZ013
Local Info
Past Weather Observations for Monday, March 2, 2015

NOTE: This archive is for the closest National Weather Service station to Moose. Information may differ from the station used for current weather conditions.

Click here for Long-term Archive

Time Weather Temperature Dewpoint Humidity Pressure Winds Precip Visibility
23:55
Overcast
23°F / -5°C 21°F / -6°C 93% 29.65 in
(1004 mb)
Calm - 1/2SM
23:35
Overcast
21°F / -6°C 21°F / -6°C 100% 29.65 in
(1004 mb)
E 4.6 mph
(E 7 kph)
- 1SM
23:15
Overcast
25°F / -4°C 25°F / -4°C 100% 29.65 in
(1004 mb)
Calm - 6SM
22:55
Overcast
25°F / -4°C 25°F / -4°C 100% 29.65 in
(1004 mb)
Calm 0.01 in
(0.25 mm)
8SM
22:35
Overcast
25°F / -4°C 23°F / -5°C 93% 29.62 in
(1003 mb)
Calm 0.01 in
(0.25 mm)
8SM
22:15
Mostly Cloudy
25°F / -4°C 25°F / -4°C 100% 29.62 in
(1003 mb)
Calm - 7SM
21:55
Overcast
25°F / -4°C 23°F / -5°C 93% 29.62 in
(1003 mb)
Calm - 4SM
21:35
Overcast
27°F / -3°C 27°F / -3°C 100% 29.62 in
(1003 mb)
Calm - 2SM
21:15
Overcast
25°F / -4°C 25°F / -4°C 100% 29.62 in
(1003 mb)
Calm - 1 1/2SM
20:55
Overcast
27°F / -3°C 27°F / -3°C 100% 29.62 in
(1003 mb)
Calm 0.01 in
(0.25 mm)
1 1/4SM
20:25
Overcast
Light Snow
27°F / -3°C 25°F / -4°C 93% 29.62 in
(1003 mb)
Calm - 1SM
18:54
Overcast
Light Snow
25°F / -4°C 25°F / -4°C 100% 29.59 in
(1002 mb)
N 9.2 mph
(N 15 kph)
- 2SM
17:54
Overcast
Showers In Vicinity
27°F / -3°C 19°F / -7°C 74% 29.59 in
(1002 mb)
N 9.2 mph
(N 15 kph)
- 10SM
16:51
Overcast
27°F / -3°C 18°F / -8°C 69% 29.62 in
(1003 mb)
Calm - 10SM
15:51
Overcast
27°F / -3°C 18°F / -8°C 69% 29.65 in
(1004 mb)
Calm - 10SM
15:15
Mostly Cloudy
25°F / -4°C 18°F / -8°C 74% 29.65 in
(1004 mb)
Calm - 10SM
13:51
Partly Cloudy
27°F / -3°C 16°F / -9°C 64% 29.68 in
(1005 mb)
Calm - 10SM
12:51
Overcast
21°F / -6°C 12°F / -11°C 68% 29.74 in
(1007 mb)
Calm - 10SM
11:55
Mostly Cloudy
19°F / -7°C 12°F / -11°C 73% 29.77 in
(1008 mb)
Variable 5.8 mph
(Variable 9 kph)
- 10SM
10:51
Clear
14°F / -10°C 9°F / -13°C 79% 29.83 in
(1010 mb)
Calm - 10SM
09:51
Clear
10°F / -12°C 5°F / -15°C 79% 29.86 in
(1011 mb)
Variable 6.9 mph
(Variable 11 kph)
- 10SM
08:51
Overcast
5°F / -15°C 1°F / -17°C 85% 29.89 in
(1012 mb)
Variable 5.8 mph
(Variable 9 kph)
- 10SM
07:51
Partly Cloudy
°F / -18°C -2°F / -19°C 92% 29.89 in
(1012 mb)
Variable 6.9 mph
(Variable 11 kph)
- 10SM
06:51
Clear
1°F / -17°C °F / -18°C 92% 29.89 in
(1012 mb)
Variable 6.9 mph
(Variable 11 kph)
- 10SM
06:35
Clear
1°F / -17°C °F / -18°C 92% 29.86 in
(1011 mb)
N 13.8 mph
(N 22 kph)
- 10SM
06:15
Clear
3°F / -16°C °F / -18°C 85% 29.89 in
(1012 mb)
N 13.8 mph
(N 22 kph)
- 10SM
05:55
Partly Cloudy
3°F / -16°C °F / -18°C 85% 29.92 in
(1013 mb)
N 8.1 mph
(N 13 kph)
- 10SM
05:35
Mostly Cloudy
5°F / -15°C 1°F / -17°C 85% 29.89 in
(1012 mb)
N 13.8 mph
(N 22 kph)
- 10SM
05:15
Overcast
5°F / -15°C 1°F / -17°C 85% 29.92 in
(1013 mb)
N 10.4 mph
(N 17 kph)
- 10SM
04:55
Overcast
7°F / -14°C 1°F / -17°C 78% 29.92 in
(1013 mb)
N 13.8 mph
(N 22 kph)
- 10SM
04:35
Overcast
7°F / -14°C 1°F / -17°C 78% 29.92 in
(1013 mb)
N 6.9 mph
(N 11 kph)
- 10SM
04:15
Mostly Cloudy
7°F / -14°C 1°F / -17°C 78% 29.95 in
(1014 mb)
NE 6.9 mph
(NE 11 kph)
- 10SM
03:55
Overcast
7°F / -14°C 3°F / -16°C 85% 29.95 in
(1014 mb)
N 8.1 mph
(N 13 kph)
- 10SM
03:35
Mostly Cloudy
7°F / -14°C 1°F / -17°C 78% 29.95 in
(1014 mb)
N 4.6 mph
(N 7 kph)
- 10SM
03:15
Clear
7°F / -14°C 1°F / -17°C 78% 29.95 in
(1014 mb)
N 8.1 mph
(N 13 kph)
- 10SM
02:55
Partly Cloudy
9°F / -13°C 3°F / -16°C 78% 29.95 in
(1014 mb)
N 10.4 mph
(N 17 kph)
- 10SM
02:35
Overcast
10°F / -12°C 5°F / -15°C 79% 29.98 in
(1015 mb)
N 10.4 mph
(N 17 kph)
- 10SM
02:15
Overcast
10°F / -12°C 3°F / -16°C 72% 29.98 in
(1015 mb)
N 10.4 mph
(N 17 kph)
- 10SM
01:55
Overcast
10°F / -12°C 3°F / -16°C 72% 29.98 in
(1015 mb)
N 12.7 mph
(N 20 kph)
- 10SM
01:35
Overcast
10°F / -12°C 5°F / -15°C 79% 29.98 in
(1015 mb)
N 9.2 mph
(N 15 kph)
- 10SM
01:15
Overcast
9°F / -13°C 5°F / -15°C 85% 29.98 in
(1015 mb)
N 9.2 mph
(N 15 kph)
- 10SM
00:55
Overcast
7°F / -14°C 3°F / -16°C 85% 29.98 in
(1015 mb)
N 10.4 mph
(N 17 kph)
- 10SM
00:35
Overcast
7°F / -14°C 3°F / -16°C 85% 30.01 in
(1016 mb)
N 9.2 mph
(N 15 kph)
- 10SM
00:15
Overcast
5°F / -15°C 1°F / -17°C 85% 30.01 in
(1016 mb)
N 11.5 mph
(N 19 kph)
- 10SM
Time Weather Temperature Dewpoint Humidity Pressure Winds Precip Visibility


Weather for websites

WeatherForYou.com, LLC is not responsible for any damages or problems caused by this service. Current weather conditions are obtained from the closest station including government and personal stations which may have varying degrees of accuracy. Weather forecasts are derived from the NOAA NDFD. Like all things, this site belongs to Jesus Christ... He just trusts me to maintain it. If you have any questions or comments email webmaster@weatherforyou.com

Copyright © 2015, WeatherForYou.com LLC. All rights reserved.